Regional Weather Roundup
Issued by NWS

Home | Current Version | Previous Version | Graphics & Text | Print | Product List | Glossary On
Versions: 1 2 3 4 5 6 7 8 9 10 11 12 13 14 15 16 17 18 19 20 21 22 23 24 25 26 27 28
000
ASUS45 KSLC 280910
RWRUT

UTAH REGIONAL WEATHER ROUNDUP
NATIONAL WEATHER SERVICE SALT LAKE CITY UT
300 AM MDT THU APR 28 2016

UTZ001>011-023>025-281000-

NORTHERN UTAH

CITY           SKY/WX    TMP DP  RH WIND       PRES   REMARKS
BRIGHAM CITY   CLOUDY    47  40  75 NW6       29.70F
HILL AFB       CLOUDY    44  41  87 S5        29.69F
LOGAN          MOCLDY    43  38  82 CALM      29.72F
OGDEN          CLOUDY    46  41  82 S5        29.69F
PROVO AIRPORT  CLOUDY    45  39  81 SE5       29.70F
SALT LAKE CITY CLOUDY    48  43  82 SE6       29.69F
VERNAL         LGT RAIN  46  32  58 N9        29.74S
WENDOVER       CLOUDY    43  37  81 NW14      29.71F
HEBER CITY     MIX PCPN  41  37  87 CALM      29.69F

$$

UTZ012>022-026-027-281000-

SOUTHERN/CENTRAL UTAH

CITY           SKY/WX    TMP DP  RH WIND       PRES   REMARKS
BLANDING       CLOUDY    44  41  88 W9        29.80S
BRYCE CANYON   FOG       31  29  92 NW3       29.71F VSB 1
CEDAR CITY     FOG       34  33  96 SW3       29.65F VSB 1/2
DELTA          CLOUDY    41  39  93 CALM      29.68F
HANKSVILLE     CLOUDY    45  43  93 CALM      29.72F
MILFORD        CLOUDY    40  38  93 N8        29.67S WCI  34
MOAB/CYNLANDS  NOT AVBL
PRICE          LGT SNOW  33  31  92 NW3       29.72F FOG
ST GEORGE      CLOUDY    48  37  66 CALM      29.64F

$$

REGIONAL REPORTS     COLORADO/ARIZONA

CITY           SKY/WX    TMP DP  RH WIND       PRES   REMARKS
CRAIG, CO      CLOUDY    36  31  82 E6        29.79F WCI  31
GRAND JUNCTION CLOUDY    47  39  74 NE5       29.69F
RIFLE          CLOUDY    40  35  83 CALM      29.76S
MONTROSE       CLOUDY    44  37  76 CALM      29.75F
CORTEZ         CLOUDY    48  36  63 S6        29.74F
PAGE, AZ       CLOUDY    49  46  90 CALM      29.66F
GRAND CANYON   CLOUDY    43  31  62 S7        29.69F
KINGMAN        MOCLDY    44  40  85 W7        29.63S
FLAGSTAFF      CLOUDY    44  26  49 S16G23    29.72F

$$

REGIONAL REPORTS    NEVADA/IDAHO/WYOMING

CITY           SKY/WX    TMP DP  RH WIND       PRES   REMARKS
LAS VEGAS, NV  CLOUDY    56  41  57 NW14      29.56F
ELY            CLOUDY    36  36 100 N13       29.70F WCI  27
ELKO           CLOUDY    41  36  82 N6        29.76F
POCATELLO, ID  CLEAR     39  29  67 NE8       29.80S WCI  33
BURLEY         PTCLDY    39  37  92 S3        29.77F
EVANSTON, WY   CLOUDY    34  29  82 E16G26    29.75F WCI  24
ROCK SPRINGS   CLOUDY    32  26  78 NE17      29.84F WCI  21

$$




USA.gov is the U.S. government's official web portal to all federal, state and local government web resources and services.